When you browse on this site, cookies collect data to enhance your experience and personalize the content and advertising you see.
Visit our Privacy Policy to learn more. By continuing to use the site, you agree to this use of cookies and data.
  • In Sweden
  • List of Countries
  • For 7 days
  • Water Temperature
  • Satellite Maps
  • Weather Map
  • Weather Widgets
  • user-avatar
    Login

    Hourly Weather Thornton

    Today, 19 July, Friday

    Time Temperature Precipitation Wind Pressure Humidity
    00:00 +27°C° 0 mm 2 mps 631 mmHg 19%
    01:00 +26°C° 0 mm 2 mps 631 mmHg 19%
    02:00 +25°C° 0 mm 2 mps 630 mmHg 20%
    03:00 +25°C° 0 mm 2 mps 630 mmHg 20%
    04:00 +25°C° 0 mm 2 mps 630 mmHg 20%
    05:00 +24°C° 0 mm 2 mps 630 mmHg 20%
    06:00 +27°C° 0 mm 2 mps 631 mmHg 18%
    07:00 +29°C° 0 mm 1 mps 632 mmHg 16%
    08:00 +31°C° 0 mm 1 mps 632 mmHg 15%
    09:00 +33°C° 0 mm 1 mps 633 mmHg 13%
    10:00 +36°C° 0 mm 2 mps 633 mmHg 11%
    11:00 +38°C° 0 mm 2 mps 633 mmHg 10%
    12:00 +38°C° 0 mm 3 mps 633 mmHg 10%
    13:00 +39°C° 0 mm 3 mps 632 mmHg 10%
    14:00 +40°C° 0 mm 3 mps 632 mmHg 9%
    15:00 +41°C° 0 mm 4 mps 632 mmHg 10%
    16:00 +41°C° 0 mm 4 mps 632 mmHg 11%
    17:00 +40°C° 0 mm 5 mps 632 mmHg 12%
    18:00 +37°C° 0.1 mm 4 mps 631 mmHg 14%
    19:00 +36°C° 0.1 mm 3 mps 631 mmHg 16%
    20:00 +34°C° 0.1 mm 3 mps 631 mmHg 18%
    21:00 +33°C° 0 mm 3 mps 631 mmHg 18%
    22:00 +30°C° 0 mm 3 mps 631 mmHg 19%
    23:00 +29°C° 0 mm 3 mps 630 mmHg 19%

    Tomorrow, 20 July, Saturday

    Time Temperature Precipitation Wind Pressure Humidity
    00:00 +28°C° 0 mm 3 mps 630 mmHg 19%
    01:00 +27°C° 0 mm 3 mps 630 mmHg 19%
    02:00 +27°C° 0 mm 2 mps 630 mmHg 19%
    03:00 +26°C° 0 mm 2 mps 630 mmHg 20%
    04:00 +26°C° 0 mm 2 mps 630 mmHg 20%
    05:00 +25°C° 0 mm 3 mps 630 mmHg 21%
    06:00 +25°C° 0 mm 3 mps 631 mmHg 31%
    07:00 +26°C° 0 mm 4 mps 631 mmHg 40%
    08:00 +26°C° 0 mm 4 mps 631 mmHg 49%
    09:00 +28°C° 0 mm 4 mps 632 mmHg 47%
    10:00 +29°C° 0 mm 4 mps 633 mmHg 44%
    11:00 +30°C° 0 mm 4 mps 634 mmHg 41%
    12:00 +30°C° 0.4 mm 5 mps 634 mmHg 42%
    13:00 +29°C° 0.4 mm 7 mps 633 mmHg 43%
    14:00 +29°C° 0.4 mm 8 mps 633 mmHg 45%
    15:00 +27°C° 4.7 mm 6 mps 633 mmHg 51%
    16:00 +25°C° 4.7 mm 4 mps 632 mmHg 57%
    17:00 +21°C° 4.7 mm 2 mps 632 mmHg 64%
    18:00 +23°C° 0 mm 2 mps 632 mmHg 62%
    19:00 +23°C° 0 mm 2 mps 633 mmHg 61%
    20:00 +23°C° 0 mm 1 mps 634 mmHg 59%
    21:00 +22°C° 0 mm 1 mps 633 mmHg 62%
    22:00 +21°C° 0 mm 1 mps 633 mmHg 65%
    23:00 +21°C° 0 mm 1 mps 633 mmHg 68%

    Day after tomorrow, 21 July, Sunday

    Time Temperature Precipitation Wind Pressure Humidity
    00:00 +20°C° 0 mm 1 mps 633 mmHg 70%
    01:00 +20°C° 0 mm 1 mps 633 mmHg 73%
    02:00 +19°C° 0 mm 1 mps 633 mmHg 76%
    03:00 +19°C° 0 mm 1 mps 633 mmHg 77%
    04:00 +19°C° 0 mm 1 mps 633 mmHg 78%
    05:00 +17°C° 0 mm 0 mps 633 mmHg 78%
    06:00 +20°C° 0 mm 1 mps 633 mmHg 75%
    07:00 +20°C° 0 mm 2 mps 634 mmHg 72%
    08:00 +21°C° 0 mm 3 mps 634 mmHg 69%
    09:00 +22°C° 0.1 mm 3 mps 635 mmHg 67%
    10:00 +22°C° 0.1 mm 3 mps 635 mmHg 65%
    11:00 +22°C° 0.1 mm 3 mps 635 mmHg 63%
    12:00 +24°C° 0.1 mm 3 mps 635 mmHg 60%
    13:00 +24°C° 0.1 mm 3 mps 635 mmHg 58%
    14:00 +24°C° 0.1 mm 2 mps 635 mmHg 56%
    15:00 +25°C° 0.1 mm 2 mps 635 mmHg 55%
    16:00 +25°C° 0.1 mm 2 mps 635 mmHg 54%
    17:00 +25°C° 0.1 mm 2 mps 635 mmHg 53%
    18:00 +24°C° 0.1 mm 2 mps 636 mmHg 57%
    19:00 +23°C° 0.1 mm 2 mps 636 mmHg 61%
    20:00 +23°C° 0.1 mm 2 mps 636 mmHg 66%
    21:00 +21°C° 0.1 mm 2 mps 637 mmHg 69%
    22:00 +21°C° 0.1 mm 2 mps 637 mmHg 72%
    23:00 +20°C° 0.1 mm 2 mps 637 mmHg 76%

    22 July, Monday

    Time Temperature Precipitation Wind Pressure Humidity
    00:00 +20°C° 0.5 mm 2 mps 637 mmHg 78%
    01:00 +19°C° 0.5 mm 2 mps 637 mmHg 80%
    02:00 +19°C° 0.5 mm 2 mps 636 mmHg 82%
    03:00 +18°C° 0.1 mm 2 mps 636 mmHg 83%
    04:00 +18°C° 0.1 mm 2 mps 636 mmHg 84%
    05:00 +18°C° 0.1 mm 2 mps 636 mmHg 85%
    06:00 +19°C° 0 mm 2 mps 637 mmHg 80%
    07:00 +20°C° 0 mm 2 mps 637 mmHg 76%
    08:00 +22°C° 0 mm 1 mps 637 mmHg 72%
    09:00 +23°C° 0 mm 1 mps 637 mmHg 64%
    10:00 +25°C° 0 mm 1 mps 637 mmHg 57%
    11:00 +27°C° 0 mm 1 mps 637 mmHg 50%
    12:00 +28°C° 0 mm 2 mps 637 mmHg 45%
    13:00 +29°C° 0 mm 2 mps 637 mmHg 40%
    14:00 +31°C° 0 mm 3 mps 637 mmHg 34%
    15:00 +30°C° 0 mm 3 mps 637 mmHg 35%
    16:00 +30°C° 0 mm 4 mps 637 mmHg 36%
    17:00 +30°C° 0 mm 4 mps 636 mmHg 36%
    18:00 +29°C° 0.1 mm 4 mps 636 mmHg 42%
    19:00 +27°C° 0.1 mm 4 mps 636 mmHg 48%
    20:00 +25°C° 0.1 mm 4 mps 636 mmHg 53%
    21:00 +25°C° 0.2 mm 4 mps 637 mmHg 54%
    22:00 +23°C° 0.2 mm 4 mps 637 mmHg 55%
    23:00 +22°C° 0.2 mm 4 mps 637 mmHg 56%

    23 July, Tuesday

    Time Temperature Precipitation Wind Pressure Humidity
    00:00 +22°C° 0 mm 4 mps 636 mmHg 57%
    01:00 +21°C° 0 mm 3 mps 636 mmHg 57%
    02:00 +21°C° 0 mm 3 mps 636 mmHg 58%
    03:00 +20°C° 0 mm 2 mps 636 mmHg 60%
    04:00 +20°C° 0 mm 2 mps 635 mmHg 61%
    05:00 +20°C° 0 mm 1 mps 635 mmHg 63%
    06:00 +22°C° 0 mm 1 mps 635 mmHg 58%
    07:00 +24°C° 0 mm 1 mps 636 mmHg 53%
    08:00 +26°C° 0 mm 1 mps 636 mmHg 48%
    09:00 +27°C° 0 mm 1 mps 636 mmHg 43%
    10:00 +29°C° 0 mm 1 mps 636 mmHg 38%
    11:00 +31°C° 0 mm 1 mps 636 mmHg 33%
    12:00 +32°C° 0 mm 2 mps 636 mmHg 29%
    13:00 +34°C° 0 mm 2 mps 636 mmHg 25%
    14:00 +36°C° 0 mm 2 mps 636 mmHg 21%
    15:00 +35°C° 0 mm 3 mps 636 mmHg 22%
    16:00 +34°C° 0 mm 3 mps 636 mmHg 24%
    17:00 +34°C° 0 mm 4 mps 636 mmHg 25%
    18:00 +30°C° 0.1 mm 3 mps 636 mmHg 31%
    19:00 +28°C° 0.1 mm 3 mps 636 mmHg 37%
    20:00 +26°C° 0.1 mm 2 mps 636 mmHg 42%
    21:00 +25°C° 0 mm 2 mps 636 mmHg 44%
    22:00 +25°C° 0 mm 2 mps 635 mmHg 46%
    23:00 +24°C° 0 mm 1 mps 635 mmHg 47%

    24 July, Wednesday

    Time Temperature Precipitation Wind Pressure Humidity
    00:00 +24°C° 0 mm 1 mps 635 mmHg 48%
    01:00 +23°C° 0 mm 2 mps 634 mmHg 49%
    02:00 +23°C° 0 mm 2 mps 634 mmHg 49%
    03:00 +21°C° 0 mm 2 mps 634 mmHg 49%
    04:00 +21°C° 0 mm 2 mps 634 mmHg 49%
    05:00 +21°C° 0 mm 2 mps 634 mmHg 48%
    06:00 +24°C° 0 mm 1 mps 634 mmHg 43%
    07:00 +26°C° 0 mm 1 mps 635 mmHg 38%
    08:00 +28°C° 0 mm 1 mps 635 mmHg 33%
    09:00 +30°C° 0 mm 1 mps 635 mmHg 29%
    10:00 +32°C° 0 mm 1 mps 636 mmHg 25%
    11:00 +34°C° 0 mm 2 mps 636 mmHg 22%
    12:00 +35°C° 0 mm 2 mps 636 mmHg 20%
    13:00 +36°C° 0 mm 3 mps 636 mmHg 19%
    14:00 +37°C° 0 mm 4 mps 636 mmHg 18%
    15:00 +34°C° 0 mm 4 mps 635 mmHg 25%
    16:00 +32°C° 0 mm 5 mps 634 mmHg 32%
    17:00 +28°C° 0 mm 5 mps 633 mmHg 39%
    18:00 +27°C° 0.1 mm 4 mps 633 mmHg 42%
    19:00 +26°C° 0.1 mm 3 mps 634 mmHg 45%
    20:00 +25°C° 0.1 mm 3 mps 634 mmHg 47%
    21:00 +25°C° 0.2 mm 3 mps 634 mmHg 48%
    22:00 +25°C° 0.2 mm 3 mps 634 mmHg 49%
    23:00 +24°C° 0.2 mm 3 mps 635 mmHg 50%
    Show more